Address 0x385f91d360e247f21f570e62c55e925313fee020 10

Txn Hash Method
Block
From
To
Value [Txn Fee]
0x90ad290ff8bbb51ccec9858090397098ca01e2fb274bd5ab3c3ac04487724517Transfer133601382021-10-19 11:25:046 days 1 hr ago0x385f91d360e247f21f570e62c55e925313fee020OUT 0x4bfe13fd065db627425068d203ba5237d6f185b10 BNB0.00021274
0xcbda615cc40077ac31917dcb82038635e550431ad15bd5aedcfae94dd0739e48Transfer133600622021-10-19 11:21:166 days 1 hr ago0x01f3e6b191eedbcf6321d9a5eac0a99c9530131d IN 0x385f91d360e247f21f570e62c55e925313fee0200.001 BNB0.00021
0x40cf94cc7f8d8a52fd16fc560ef05410800e0f0efcebb6e861651ad052f7bf88Transfer133600352021-10-19 11:19:556 days 1 hr ago0xaa25aa7a19f9c426e07dee59b12f944f4d9f1dd3 IN 0x385f91d360e247f21f570e62c55e925313fee0201 BNB0.000378
0x54b45ea15b7a55e5edbda4a2ba926b65bb900cd0a0e1f2c59efbbdf7ac124a33Transfer133208202021-10-18 2:31:207 days 10 hrs ago0xaa25aa7a19f9c426e07dee59b12f944f4d9f1dd3 IN 0x385f91d360e247f21f570e62c55e925313fee0201 BNB0.000378
0xb11067c7825e582cf6eb79a180c78606824ba34782354afd4b70e1b4f89a0b53Approve133077792021-10-17 15:39:177 days 21 hrs ago0x385f91d360e247f21f570e62c55e925313fee020OUT 0x21f9b2137d4e1b83d09ea373be773a986c0e3f900 BNB0.00044921
0x17f52730452fee86dd2822bb5a4fec41954be966557e499d891f7ec5b61b8fb5Buy Token133066982021-10-17 14:45:147 days 22 hrs ago0x385f91d360e247f21f570e62c55e925313fee020OUT 0x43319d6bd12638f6faa976ec1620c61755bfa1f81 BNB0.00096572
0x4dbb7fa57ea4c9fcc9e1ae4cb4344f64a97e0876ce46fc02c97ec99fa44f18c1Buy Token133066152021-10-17 14:41:057 days 22 hrs ago0x385f91d360e247f21f570e62c55e925313fee020OUT 0x43319d6bd12638f6faa976ec1620c61755bfa1f80.5 BNB0.00126572
0xaf0e5199147351af119afa0ce215551cb0f3ba715c6def2710c318d5483eaf82Add Liquidity Fr...132989112021-10-17 8:15:538 days 4 hrs ago0x385f91d360e247f21f570e62c55e925313fee020OUT 0x6bcf3722952423ba1168c96504ee8c03eedef5400 BNB0.00304279
0x40231194e139348c70c2cb6388320f9f4ca2221a7d63f31ca3cbc50b438940e4Approve132989042021-10-17 8:15:328 days 4 hrs ago0x385f91d360e247f21f570e62c55e925313fee020OUT 0xddaf411a78d804efd047ec9c2088403fdb5beab90 BNB0.00044438
0xf6f99f65604995f1e88e2a7f0c79c825210668823e3b27f4b0e4199acd62f02dApprove132988972021-10-17 8:15:118 days 4 hrs ago0x385f91d360e247f21f570e62c55e925313fee020OUT 0xcdadb1d9ae238db553ab88a7c5356f4b518c76cb0 BNB0.00044438
0x0f460ddeb10e36c689da227ff41a6cfa3a8fed28a113cb8de26382f8faf27c7dSwap Exact ETH F...132988572021-10-17 8:13:118 days 4 hrs ago0x385f91d360e247f21f570e62c55e925313fee020OUT 0x946c1b0f2dfb932968222aadffddd22acbb761971 BNB0.00124288
0x7f03b6af6666e2f00797329a6a8183ebd38920ed07d89e01a3c0fa7fd4703873Swap Exact ETH F...132988232021-10-17 8:11:298 days 4 hrs ago0x385f91d360e247f21f570e62c55e925313fee020OUT 0x946c1b0f2dfb932968222aadffddd22acbb761971 BNB0.00029448
0x36e3e0813756db212dc94588093ea8bf63df582e0600f98bea2ce3b3829a5515Swap Exact ETH F...132988112021-10-17 8:10:538 days 4 hrs ago0x385f91d360e247f21f570e62c55e925313fee020OUT 0x946c1b0f2dfb932968222aadffddd22acbb761970.5 BNB0.001243
0x413ad1cbc22ad545e9d4b8487e6f1783545e80b81e8b2e683d5014c7fc30f764Transfer132987122021-10-17 8:05:568 days 4 hrs ago0xaa25aa7a19f9c426e07dee59b12f944f4d9f1dd3 IN 0x385f91d360e247f21f570e62c55e925313fee0201 BNB0.000378
0x7db4f97294e30e8f89853a18e43499545b88ce3a066e01608a62ec9c4d022b040x284f3bb1132923852021-10-17 2:49:358 days 10 hrs ago0x385f91d360e247f21f570e62c55e925313fee020OUT 0x89e4893ff44f81f574e7c1bb471337bda29426b80 BNB0.00214347
0xc39869173ae550e5e63a9a1a7469b0f2b75dcb1d30216e249f291e13f542acb60x30e07276132923572021-10-17 2:48:118 days 10 hrs ago0x385f91d360e247f21f570e62c55e925313fee020OUT 0x424990b4251d8b513d049a7145caab75cff835f70 BNB0.00150245
0x071c43505355ce7069aadd5016faf574ff69ec31039fec8888e2f644ed50f8a7Approve132923492021-10-17 2:47:478 days 10 hrs ago0x385f91d360e247f21f570e62c55e925313fee020OUT 0x7f06005325adec210af3c4ccae87a759dfca98370 BNB0.00047108
0x6627345b914fab5ac61c5f8b85c6e1f2f3dc998eafc2486dbebf92b2d56bc5d10x284f3bb1132059422021-10-14 2:28:0411 days 10 hrs ago0x385f91d360e247f21f570e62c55e925313fee020OUT 0x89e4893ff44f81f574e7c1bb471337bda29426b80 BNB0.01043982
0x4e01e9eceb76be6926fc4a50b65e033afae8b77d823049d8d4449b7d73078d310x284f3bb1132059262021-10-14 2:27:1611 days 10 hrs ago0x385f91d360e247f21f570e62c55e925313fee020OUT 0x89e4893ff44f81f574e7c1bb471337bda29426b80 BNB0.01042344
0x539b270018a1e55c7fae44134dd197e67c0ff508f6d3be6f3b13cccd017020820x284f3bb1132059082021-10-14 2:26:2211 days 10 hrs ago0x385f91d360e247f21f570e62c55e925313fee020OUT 0x89e4893ff44f81f574e7c1bb471337bda29426b80 BNB0.0022962
0xff2e9af0d554acda142ea58d0e6e810065b5f34523f4187201d9e78529f98b2eApprove132058992021-10-14 2:25:5511 days 10 hrs ago0x385f91d360e247f21f570e62c55e925313fee020OUT 0x7f06005325adec210af3c4ccae87a759dfca98370 BNB0.00047108
0x1c6571d9fd93a05b5559b7a74d5b7d3b6b29220fd3a7526394b270db05c68aae0x13813359132058402021-10-14 2:22:5811 days 10 hrs ago0x385f91d360e247f21f570e62c55e925313fee020OUT 0x19341ba0af99ce81606aa5f500d5e57639a0a7240.8 BNB0.00253019
0x671483caecf8e8110c996e2c2083dee4a12cce8ad4d05f6a9929d97b7d5ae0baApprove132058312021-10-14 2:22:3111 days 10 hrs ago0x385f91d360e247f21f570e62c55e925313fee020OUT 0x7f06005325adec210af3c4ccae87a759dfca98370 BNB0.00047096
0x9045e66d7a01e58e507b5cac8f0c3d573c9427016fec5e9d78d3a51a85922d9bTransfer131325112021-10-11 12:48:1014 days 13 mins ago0xaa25aa7a19f9c426e07dee59b12f944f4d9f1dd3 IN 0x385f91d360e247f21f570e62c55e925313fee0201 BNB0.000378
0x88a1d6c888cd721720d5d24b0000a1ca5b20f172790ad9d1c6167dcebe8e04c00xc6afd447128121982021-09-30 9:00:2625 days 4 hrs ago0x385f91d360e247f21f570e62c55e925313fee020OUT 0xf51e83c498f32189435c06f585a71a9bc2054a0c0 BNB0.00259342
[ Download CSV Export 
Latest 1 internal transaction
Parent Txn Hash Block From To Value
0x1ebcc52e970a2fecff0fc95fb562b2e2c1ee9ed98cd9a080e8612e861997fd16122664412021-09-11 6:34:2044 days 6 hrs ago 0x2345c50d25c62514219d39c53234fee24807a8390x385f91d360e247f21f570e62c55e925313fee0200.074294 BNB
[ Download CSV Export 
Loading

Contract Name:
0 BNB

Compiler Version
0

Optimization Enabled:
0 BNB

Other Settings:
-NA-
Block Transaction Gas Used Reward
Age Block Fee Address BC Fee Address Voting Power Jailed Incoming
Block Uncle Number Difficulty Gas Used Reward
Loading